Вернуться в каталог

STARLINK-3109

АктивенСвязьVLEO
NORAD 49143·PAYLOAD·🇺🇸 United States

Запущен Sep 14, 2021 с Vandenberg Space Force Base

Loading…

Ближайшие Пролёты (ближайшие 24 часа)

TLE

СвежийSource: CelesTrak SupGP

Эпоха: Sep 14, 2026, 20:41 UTC

1 49143C 21082P   26257.86229167 -.00030070  00000+0 -25752-2 0  2578
2 49143  70.0014 158.8754 0002913 265.1999 200.2610 14.97506206    11

Отслеживайте STARLINK-3109 в реальном времени с AllMySat

Download on the App Store